FW2834 Weather Reports


Display with metric or nautical units.
time (UTC)temp
F
wind
direction
speed
MPH
gust
MPH
rain 1hr
in
rain 24hr
in
rain mn
in
humidity
%
barometer
mb
20260831194007 92 175 0.0 2.0 0.00 0.00 0.00 52 1016.5
20260831193507 92 258 0.0 2.0 0.00 0.00 0.00 50 1016.5
20260831193007 92 219 0.0 2.0 0.00 0.00 0.00 49 1016.5
20260831192504 92 228 0.0 2.0 0.00 0.00 0.00 50 1016.5
20260831192004 92 236 0.0 2.0 0.00 0.00 0.00 50 1016.5
20260831191504 92 267 0.0 2.0 0.00 0.00 0.00 52 1016.5
20260831191004 92 264 0.0 3.0 0.00 0.00 0.00 53 1016.6
20260831190501 91 279 0.0 3.0 0.00 0.00 0.00 56 1016.6
20260831190001 91 279 0.0 2.0 0.00 0.00 0.00 53 1016.7
20260831185601 91 281 0.0 2.0 0.00 0.00 0.00 55 1016.7
20260831185102 91 281 0.0 2.0 0.00 0.00 0.00 54 1016.8
20260831184600 91 281 0.0 3.0 0.00 0.00 0.00 55 1016.9
20260831184102 91 9 0.0 3.0 0.00 0.00 0.00 55 1017.0
20260831183558 91 66 0.0 3.0 0.00 0.00 0.00 55 1017.0
20260831183106 90 180 0.0 3.0 0.00 0.00 0.00 55 1017.0
20260831182556 90 283 1.0 3.0 0.00 0.00 0.00 57 1017.1
20260831182100 90 360 0.0 2.0 0.00 0.00 0.00 57 1017.0
20260831181554 90 68 0.0 2.0 0.00 0.00 0.00 58 1017.0
20260831181054 89 63 0.0 2.0 0.00 0.00 0.00 57 1017.1
20260831180553 89 62 0.0 3.0 0.00 0.00 0.00 59 1017.2
20260831180110 89 262 0.0 3.0 0.00 0.00 0.00 59 1017.2
20260831175554 89 215 1.0 3.0 0.00 0.00 0.00 58 1017.2
20260831175054 89 330 1.0 3.0 0.00 0.00 0.00 60 1017.2
20260831174553 89 350 0.0 2.0 0.00 0.00 0.00 60 1017.3
20260831174051 89 9 0.0 2.0 0.00 0.00 0.00 61 1017.2
20260831173551 89 9 0.0 2.0 0.00 0.00 0.00 59 1017.3
20260831173050 89 347 0.0 2.0 0.00 0.00 0.00 59 1017.3
20260831172550 89 360 0.0 3.0 0.00 0.00 0.00 58 1017.4
20260831172049 89 27 1.0 3.0 0.00 0.00 0.00 57 1017.4
20260831171552 90 329 0.0 4.0 0.00 0.00 0.00 57 1017.4
20260831171049 90 321 1.0 4.0 0.00 0.00 0.00 59 1017.4
20260831170549 90 300 0.0 3.0 0.00 0.00 0.00 59 1017.4
20260831170049 90 301 0.0 3.0 0.00 0.00 0.00 59 1017.4
20260831165549 90 341 0.0 3.0 0.00 0.00 0.00 59 1017.4
20260831165047 90 92 0.0 5.0 0.00 0.00 0.00 59 1017.5
20260831164550 90 9 0.0 5.0 0.00 0.00 0.00 59 1017.6
20260831164050 90 156 0.0 3.0 0.00 0.00 0.00 58 1017.7
20260831163546 90 298 1.0 3.0 0.00 0.00 0.00 58 1017.6
20260831163045 89 277 0.0 3.0 0.00 0.00 0.00 59 1017.7
20260831162544 89 262 1.0 6.0 0.00 0.00 0.00 59 1017.7
20260831162045 89 290 1.0 6.0 0.00 0.00 0.00 62 1017.6
20260831161549 89 255 0.0 3.0 0.00 0.00 0.00 63 1017.7
20260831161040 88 126 0.0 3.0 0.00 0.00 0.00 61 1017.7
20260831160539 88 288 1.0 3.0 0.00 0.00 0.00 61 1017.8
20260831160038 87 267 0.0 3.0 0.00 0.00 0.00 62 1017.7
20260831155537 87 331 0.0 2.0 0.00 0.00 0.00 63 1017.7
20260831155036 87 348 0.0 3.0 0.00 0.00 0.00 64 1017.7
20260831154538 86 345 0.0 3.0 0.00 0.00 0.00 64 1017.7
20260831154032 86 223 1.0 3.0 0.00 0.00 0.00 64 1017.6
20260831153531 85 142 0.0 3.0 0.00 0.00 0.00 66 1017.6
20260831153030 85 134 0.0 3.0 0.00 0.00 0.00 66 1017.6
20260831152531 84 238 0.0 2.0 0.00 0.00 0.00 66 1017.6
20260831152027 84 284 0.0 2.0 0.00 0.00 0.00 68 1017.6
20260831151526 83 314 0.0 2.0 0.00 0.00 0.00 71 1017.6
20260831151028 82 314 0.0 2.0 0.00 0.00 0.00 71 1017.7
20260831150524 81 317 0.0 0.0 0.00 0.00 0.00 72 1017.8
20260831150024 81 317 0.0 2.0 0.00 0.00 0.00 72 1017.8
20260831145520 80 317 0.0 2.0 0.00 0.00 0.00 73 1017.8
20260831145019 80 126 0.0 2.0 0.00 0.00 0.00 74 1017.9
20260831144518 79 115 0.0 1.0 0.00 0.00 0.00 75 1017.8
20260831144020 78 115 0.0 0.0 0.00 0.00 0.00 76 1017.8
20260831143514 78 115 0.0 0.0 0.00 0.00 0.00 76 1017.7
20260831143013 77 115 0.0 0.0 0.00 0.00 0.00 77 1017.6
20260831142511 77 116 0.0 0.0 0.00 0.00 0.00 77 1017.6
20260831142013 77 116 0.0 0.0 0.00 0.00 0.00 78 1017.5
20260831141508 76 116 0.0 0.0 0.00 0.00 0.00 80 1017.6
20260831141007 76 116 0.0 0.0 0.00 0.00 0.00 81 1017.6
20260831140506 76 116 0.0 0.0 0.00 0.00 0.00 84 1017.6
20260831140006 76 116 0.0 0.0 0.00 0.00 0.00 86 1017.5
20260831135505 75 116 0.0 0.0 0.00 0.00 0.00 86 1017.6
20260831135001 75 116 0.0 0.0 0.00 0.00 0.00 87 1017.5
20260831134601 75 116 0.0 0.0 0.00 0.00 0.00 87 1017.5
20260831134100 74 116 0.0 0.0 0.00 0.00 0.00 88 1017.5
20260831133557 74 116 0.0 0.0 0.00 0.00 0.00 88 1017.5
20260831133058 74 116 0.0 0.0 0.00 0.00 0.00 88 1017.6
20260831132556 74 116 0.0 0.0 0.00 0.00 0.00 88 1017.4
20260831132054 74 115 0.0 0.0 0.00 0.00 0.00 88 1017.4
20260831131553 73 115 0.0 0.0 0.00 0.00 0.00 88 1017.4
20260831131051 73 115 0.0 0.0 0.00 0.00 0.00 88 1017.5
20260831130550 73 115 0.0 0.0 0.00 0.00 0.00 88 1017.4
20260831130050 73 115 0.0 1.0 0.00 0.00 0.00 88 1017.3
20260831125547 72 115 0.0 2.0 0.00 0.00 0.00 87 1017.4
20260831125046 72 115 0.0 2.0 0.00 0.00 0.00 87 1017.3
20260831124549 72 115 0.0 1.0 0.00 0.00 0.00 87 1017.3
20260831124045 72 115 0.0 1.0 0.00 0.00 0.00 86 1017.2
20260831123542 71 115 0.0 1.0 0.00 0.00 0.00 85 1017.2
20260831123043 71 115 0.0 0.0 0.00 0.00 0.00 84 1017.1
20260831122543 71 115 0.0 0.0 0.00 0.00 0.00 84 1017.2
20260831122040 71 115 0.0 0.0 0.00 0.00 0.00 84 1017.2
20260831121543 71 115 0.0 0.0 0.00 0.00 0.00 83 1017.2
20260831121037 71 115 0.0 0.0 0.00 0.00 0.00 83 1017.2
20260831120536 71 115 0.0 0.0 0.00 0.00 0.00 83 1017.2
20260831120035 70 115 0.0 0.0 0.00 0.00 0.00 82 1017.2
20260831115534 70 115 0.0 0.0 0.00 0.00 0.00 82 1017.1
20260831115034 70 115 0.0 0.0 0.00 0.00 0.00 82 1017.0
20260831114533 70 115 0.0 0.0 0.00 0.00 0.00 82 1017.0
20260831114032 70 115 0.0 0.0 0.00 0.00 0.00 82 1017.0
20260831113532 70 115 0.0 0.0 0.00 0.00 0.00 82 1016.9
20260831113030 70 115 0.0 0.0 0.00 0.00 0.00 82 1016.9
20260831112532 70 115 0.0 0.0 0.00 0.00 0.00 81 1016.9
20260831112036 70 115 0.0 0.0 0.00 0.00 0.00 81 1016.8
20260831111529 70 115 0.0 0.0 0.00 0.00 0.00 81 1016.7
20260831111029 70 115 0.0 0.0 0.00 0.00 0.00 81 1016.8
20260831110529 70 115 0.0 0.0 0.00 0.00 0.00 81 1016.7
20260831110029 70 115 0.0 0.0 0.00 0.00 0.00 81 1016.6
20260831105533 70 115 0.0 0.0 0.00 0.00 0.00 81 1016.6
20260831105031 70 115 0.0 0.0 0.00 0.00 0.00 81 1016.5
20260831104530 70 115 0.0 0.0 0.00 0.00 0.00 81 1016.6
20260831104029 70 115 0.0 0.0 0.00 0.00 0.00 81 1016.5
20260831103528 70 115 0.0 0.0 0.00 0.00 0.00 81 1016.5
20260831103027 70 115 0.0 0.0 0.00 0.00 0.00 82 1016.5
20260831102530 70 115 0.0 0.0 0.00 0.00 0.00 81 1016.5
20260831102029 70 115 0.0 0.0 0.00 0.00 0.00 81 1016.5
20260831101527 70 115 0.0 0.0 0.00 0.00 0.00 81 1016.4
20260831101027 70 115 0.0 0.0 0.00 0.00 0.00 81 1016.3
20260831100527 70 115 0.0 0.0 0.00 0.00 0.00 81 1016.3
20260831100028 70 115 0.0 0.0 0.00 0.00 0.00 81 1016.3
20260831095526 70 115 0.0 0.0 0.00 0.00 0.00 81 1016.2
20260831095026 70 115 0.0 0.0 0.00 0.00 0.00 81 1016.3
20260831094532 70 115 0.0 0.0 0.00 0.00 0.00 81 1016.4
20260831094026 70 115 0.0 0.0 0.00 0.00 0.00 81 1016.4
20260831093524 70 115 0.0 0.0 0.00 0.00 0.00 80 1016.3
20260831093031 70 115 0.0 0.0 0.00 0.00 0.00 80 1016.3
20260831092524 70 115 0.0 0.0 0.00 0.00 0.00 80 1016.4
20260831092027 70 115 0.0 0.0 0.00 0.00 0.00 80 1016.4
20260831091525 70 115 0.0 0.0 0.00 0.00 0.00 80 1016.4
20260831091024 70 115 0.0 0.0 0.00 0.00 0.00 80 1016.3
20260831090524 70 115 0.0 0.0 0.00 0.00 0.00 80 1016.4
20260831090024 70 115 0.0 0.0 0.00 0.00 0.00 80 1016.4
20260831085524 70 115 0.0 0.0 0.00 0.00 0.00 79 1016.4
20260831085023 70 115 0.0 0.0 0.00 0.00 0.00 79 1016.2
20260831084535 70 115 0.0 0.0 0.00 0.00 0.00 79 1016.2
20260831084023 70 115 0.0 0.0 0.00 0.00 0.00 79 1016.1
20260831083522 70 115 0.0 0.0 0.00 0.00 0.00 78 1016.0
20260831083037 70 115 0.0 0.0 0.00 0.00 0.00 78 1015.9
20260831082522 70 115 0.0 0.0 0.00 0.00 0.00 78 1015.9
20260831082021 70 115 0.0 0.0 0.00 0.00 0.00 78 1015.8
20260831081523 70 115 0.0 0.0 0.00 0.00 0.00 78 1015.7
20260831081024 70 115 0.0 0.0 0.00 0.00 0.00 78 1015.8
20260831080521 70 115 0.0 0.0 0.00 0.00 0.00 77 1015.8
20260831080027 70 115 0.0 0.0 0.00 0.00 0.00 77 1015.9
20260831075519 70 115 0.0 0.0 0.00 0.00 0.00 77 1015.8
20260831075019 70 115 0.0 0.0 0.00 0.00 0.00 77 1015.8
20260831074519 70 115 0.0 0.0 0.00 0.00 0.00 77 1015.9
20260831074022 70 115 0.0 0.0 0.00 0.00 0.00 77 1015.8
20260831073518 70 115 0.0 0.0 0.00 0.00 0.00 77 1015.9
20260831073020 70 115 0.0 0.0 0.00 0.00 0.00 76 1015.9
20260831072516 70 115 0.0 0.0 0.00 0.00 0.00 76 1015.9
20260831072018 70 115 0.0 0.0 0.00 0.00 0.00 76 1015.9
20260831071515 70 115 0.0 0.0 0.00 0.00 0.00 76 1016.0
20260831071015 70 115 0.0 0.0 0.00 0.00 0.00 76 1016.0
20260831070515 70 115 0.0 0.0 0.00 0.00 0.00 76 1016.1
20260831070017 70 115 0.0 0.0 0.00 0.00 0.00 76 1016.1
20260831065514 70 115 0.0 0.0 0.00 0.00 0.00 76 1016.1
20260831065014 70 115 0.0 0.0 0.00 0.00 0.00 76 1016.2
20260831064512 70 115 0.0 0.0 0.00 0.00 0.00 75 1016.3
20260831064013 70 115 0.0 0.0 0.00 0.00 0.00 75 1016.4
20260831063511 70 115 0.0 0.0 0.00 0.00 0.00 75 1016.5
20260831063010 70 115 0.0 0.0 0.00 0.00 0.00 75 1016.5
20260831062510 70 115 0.0 0.0 0.00 0.00 0.00 75 1016.6
20260831062012 70 115 0.0 0.0 0.00 0.00 0.00 75 1016.8
20260831061509 70 115 0.0 0.0 0.00 0.00 0.00 75 1016.8
20260831061009 70 115 0.0 0.0 0.00 0.00 0.00 75 1017.0
20260831060510 70 115 0.0 0.0 0.00 0.00 0.00 75 1016.9
20260831060008 70 115 0.0 0.0 0.00 0.00 0.00 75 1016.9
20260831055507 70 115 0.0 0.0 0.00 0.00 0.00 75 1016.7
20260831055006 71 115 0.0 0.0 0.00 0.00 0.00 75 1016.8
20260831054506 71 115 0.0 0.0 0.00 0.00 0.00 75 1016.8
20260831054006 71 115 0.0 0.0 0.00 0.00 0.00 75 1016.9
20260831053506 71 115 0.0 0.0 0.00 0.00 0.00 75 1016.9
20260831053007 71 115 0.0 0.0 0.00 0.00 0.00 75 1016.9
20260831052504 71 115 0.0 0.0 0.00 0.00 0.00 75 1017.0
20260831052007 71 115 0.0 0.0 0.00 0.00 0.00 74 1016.9
20260831051507 71 115 0.0 0.0 0.00 0.00 0.00 74 1016.9
20260831051001 71 115 0.0 0.0 0.00 0.00 0.00 74 1016.8
20260831050503 71 115 0.0 0.0 0.00 0.00 0.00 74 1016.7
20260831050001 71 115 0.0 0.0 0.00 0.00 0.00 74 1016.6
20260831045601 71 115 0.0 0.0 0.00 0.00 0.00 74 1016.7
20260831045101 71 115 0.0 0.0 0.00 0.00 0.00 74 1016.6
20260831044605 71 115 0.0 0.0 0.00 0.00 0.00 73 1016.7
20260831044058 71 115 0.0 0.0 0.00 0.00 0.00 73 1016.7
20260831043558 71 115 0.0 0.0 0.00 0.00 0.00 73 1016.7
20260831043059 71 115 0.0 0.0 0.00 0.00 0.00 73 1016.6
20260831042559 72 115 0.0 0.0 0.00 0.00 0.00 73 1016.6
20260831042057 72 115 0.0 0.0 0.00 0.00 0.00 73 1016.7
20260831041603 72 115 0.0 0.0 0.00 0.00 0.00 73 1016.8
20260831041056 72 115 0.0 0.0 0.00 0.00 0.00 73 1016.6
20260831040556 72 115 0.0 0.0 0.00 0.00 0.00 73 1016.6
20260831040055 72 115 0.0 0.0 0.00 0.00 0.00 73 1016.8
20260831035555 72 115 0.0 0.0 0.00 0.00 0.00 73 1016.7
20260831035054 72 115 0.0 0.0 0.00 0.00 0.00 72 1016.8
20260831034554 72 115 0.0 0.0 0.00 0.00 0.00 72 1016.8
20260831034053 72 115 0.0 0.0 0.00 0.00 0.00 72 1016.9
20260831033553 72 115 0.0 0.0 0.00 0.00 0.00 72 1016.8
20260831033053 72 115 0.0 0.0 0.00 0.00 0.00 72 1016.8
20260831032553 73 115 0.0 0.0 0.00 0.00 0.00 72 1016.9
20260831032053 73 115 0.0 0.0 0.00 0.00 0.00 72 1016.8
20260831031553 73 115 0.0 0.0 0.00 0.00 0.00 72 1016.7
20260831031054 73 115 0.0 0.0 0.00 0.00 0.00 72 1016.8
20260831030552 73 115 0.0 0.0 0.00 0.00 0.00 71 1016.7
20260831030101 73 115 0.0 0.0 0.00 0.00 0.00 71 1016.7
20260831025552 73 115 0.0 0.0 0.00 0.00 0.00 71 1016.8
20260831025052 73 115 0.0 0.0 0.00 0.00 0.00 71 1016.8
20260831024551 73 115 0.0 0.0 0.00 0.00 0.00 71 1016.9
20260831024052 73 115 0.0 0.0 0.00 0.00 0.00 71 1016.8
20260831023551 74 115 0.0 0.0 0.00 0.00 0.00 71 1016.8
20260831023051 74 115 0.0 0.0 0.00 0.00 0.00 70 1016.8
20260831022550 74 115 0.0 0.0 0.00 0.00 0.00 70 1016.6
20260831022050 74 115 0.0 0.0 0.00 0.00 0.00 70 1016.6
20260831021553 74 115 0.0 0.0 0.00 0.00 0.00 70 1016.7
20260831021050 74 115 0.0 0.0 0.00 0.00 0.00 70 1016.7
20260831020550 75 115 0.0 0.0 0.00 0.00 0.00 70 1016.6
20260831020050 75 115 0.0 0.0 0.00 0.00 0.00 69 1016.5
20260831015549 75 115 0.0 0.0 0.00 0.00 0.00 69 1016.6
20260831015049 75 115 0.0 0.0 0.00 0.00 0.00 69 1016.5
20260831014602 75 115 0.0 0.0 0.00 0.00 0.00 68 1016.5
20260831014049 76 115 0.0 0.0 0.00 0.00 0.00 68 1016.6
20260831013549 76 115 0.0 0.0 0.00 0.00 0.00 67 1016.5
20260831013051 76 115 0.0 0.0 0.00 0.00 0.00 67 1016.5
20260831012549 76 115 0.0 0.0 0.00 0.00 0.00 66 1016.4
20260831012048 76 115 0.0 0.0 0.00 0.00 0.00 66 1016.4
20260831011607 77 115 0.0 0.0 0.00 0.00 0.00 66 1016.4
20260831011048 77 115 0.0 0.0 0.00 0.00 0.00 65 1016.4
20260831010548 77 115 0.0 0.0 0.00 0.00 0.00 65 1016.3
20260831010048 78 115 0.0 0.0 0.00 0.00 0.00 65 1016.2
20260831005549 78 115 0.0 0.0 0.00 0.00 0.00 64 1016.1
20260831005051 78 115 0.0 0.0 0.00 0.00 0.00 65 1016.0
20260831004550 79 115 0.0 0.0 0.00 0.00 0.00 64 1016.0
20260831004048 79 115 0.0 0.0 0.00 0.00 0.00 63 1016.1
20260831003547 79 115 0.0 0.0 0.00 0.00 0.00 63 1016.1
20260831003052 80 115 0.0 0.0 0.00 0.00 0.00 63 1016.1
20260831002550 80 115 0.0 0.0 0.00 0.00 0.00 62 1016.2
20260831002047 80 115 0.0 0.0 0.00 0.00 0.00 62 1016.1
20260831001600 81 115 0.0 0.0 0.00 0.00 0.00 62 1015.9
20260831001046 81 115 0.0 0.0 0.00 0.00 0.00 61 1015.9
20260831000547 81 115 0.0 0.0 0.00 0.00 0.00 60 1015.9
20260831000048 82 115 0.0 0.0 0.00 0.00 0.00 60 1015.9
20260830235546 82 115 0.0 0.0 0.00 0.00 0.00 60 1015.9
20260830235045 82 115 0.0 0.0 0.00 0.00 0.00 59 1015.8
20260830234546 83 115 0.0 0.0 0.00 0.00 0.00 59 1015.8
20260830234045 83 115 0.0 0.0 0.00 0.00 0.00 59 1015.8
20260830233545 83 115 0.0 0.0 0.00 0.00 0.00 59 1015.8
20260830233045 83 115 0.0 0.0 0.00 0.00 0.00 59 1015.7
20260830232545 83 115 0.0 0.0 0.00 0.00 0.00 59 1015.5
20260830232045 84 115 0.0 0.0 0.00 0.00 0.00 59 1015.5
20260830231545 84 115 0.0 0.0 0.00 0.00 0.00 58 1015.5
20260830231045 84 115 0.0 1.0 0.00 0.00 0.00 57 1015.4
20260830230544 84 115 0.0 1.0 0.00 0.00 0.00 57 1015.4
20260830230044 84 115 0.0 0.0 0.00 0.00 0.00 57 1015.4
20260830225544 84 115 0.0 0.0 0.00 0.00 0.00 57 1015.3
20260830225044 84 115 0.0 0.0 0.00 0.00 0.00 55 1015.4
20260830224606 85 115 0.0 1.0 0.00 0.00 0.00 55 1015.5
20260830224044 85 115 0.0 1.0 0.00 0.00 0.00 54 1015.4
20260830223544 85 115 0.0 0.0 0.00 0.00 0.00 54 1015.4
20260830223042 85 115 0.0 0.0 0.00 0.00 0.00 53 1015.4
20260830222542 85 115 0.0 0.0 0.00 0.00 0.00 53 1015.3
20260830222042 86 115 0.0 2.0 0.00 0.00 0.00 52 1015.1
20260830221542 86 115 0.0 2.0 0.00 0.00 0.00 51 1015.2
20260830221041 86 115 0.0 1.0 0.00 0.00 0.00 52 1015.3
20260830220541 86 115 0.0 1.0 0.00 0.00 0.00 52 1015.4
20260830220051 86 115 0.0 1.0 0.00 0.00 0.00 51 1015.4
20260830215540 87 115 0.0 0.0 0.00 0.00 0.00 51 1015.5
20260830215040 87 115 0.0 2.0 0.00 0.00 0.00 50 1015.5
20260830214552 87 115 0.0 2.0 0.00 0.00 0.00 51 1015.4
20260830214039 87 115 0.0 2.0 0.00 0.00 0.00 51 1015.5
20260830213539 87 115 0.0 3.0 0.00 0.00 0.00 50 1015.5
20260830213038 87 123 0.0 3.0 0.00 0.00 0.00 48 1015.6
20260830212538 87 122 0.0 3.0 0.00 0.00 0.00 48 1015.5
20260830212038 87 122 0.0 2.0 0.00 0.00 0.00 50 1015.6
20260830211540 88 122 0.0 2.0 0.00 0.00 0.00 49 1015.5
20260830211038 88 122 0.0 1.0 0.00 0.00 0.00 47 1015.6
20260830210537 88 122 0.0 0.0 0.00 0.00 0.00 47 1015.7
20260830210037 88 122 0.0 2.0 0.00 0.00 0.00 47 1015.8
20260830205534 88 122 0.0 2.0 0.00 0.00 0.00 43 1015.9
20260830205038 88 122 0.0 3.0 0.00 0.00 0.00 45 1016.0
20260830204536 88 122 0.0 3.0 0.00 0.00 0.00 42 1016.0
20260830204034 88 114 0.0 2.0 0.00 0.00 0.00 45 1016.1
20260830203533 88 113 0.0 1.0 0.00 0.00 0.00 46 1016.1
20260830203031 88 113 0.0 1.0 0.00 0.00 0.00 46 1016.2
20260830202531 89 113 0.0 3.0 0.00 0.00 0.00 44 1016.4
20260830202032 89 113 0.0 3.0 0.00 0.00 0.00 45 1016.5
20260830201529 89 120 0.0 2.0 0.00 0.00 0.00 46 1016.6
20260830201031 89 120 0.0 2.0 0.00 0.00 0.00 42 1016.6
20260830200533 89 120 0.0 0.0 0.00 0.00 0.00 43 1016.7
20260830200028 89 120 0.0 4.0 0.00 0.00 0.00 47 1016.8
20260830195527 89 120 0.0 4.0 0.00 0.00 0.00 44 1016.8
20260830195025 89 144 0.0 3.0 0.00 0.00 0.00 45 1016.9
20260830194525 89 150 0.0 3.0 0.00 0.00 0.00 47 1016.9